Погода в Андеге

Россия / Ненецкий автономный округ     67°53′25″N   53°12′55″E
В апреле 2022 года жителям России запретили посещать сайт meteo.paraplan.net по решению Генеральной прокуратуры. Аудитория сайта уменьшилась в 10 раз. Владельцы сайта не видят смысла в поддержке погодного сервера в таких условиях. Сайт будет закрыт в октябре.
темп.,
°C
ветер,
м/с
пор.,
м/с
влажн.,
%
обл.,
%
осадки,
мм/ч
давл.,
гПа
погр.,
м
6 октября, чт
чт600:00+5ю3497100 0.0 101580
03:00+6ю3499100 0.0 101385
06:00+6ю4798100 0.1 1012206
09:00+6ю5996100 0.1 1011341
12:00+6ю5993100 0.0 1010416
15:00+6ю5895100 0.1 1008298
18:00+6ю5996100 0.0 1007281
21:00+5ю61194100 0.1 1005348
7 октября, пт
пт700:00+4ю6129398 0.0 1002301
03:00+4ююв7139477 0.0 999336
06:00+5ююв71294100 0.0 996508
09:00+6ююв71291100 0.0 994581
12:00+6ю71290100 0.2 993630
15:00+6ююв61191100 0.3 992524
18:00+6ююв5996100 1.0 991407
21:00+6ююв4797100 2.4 991287
8 октября, сб
сб800:00+5ююв2499100 1.7 991131
03:00+6ююз2297100 2.8 99151
06:00+6з3496100 0.6 99297
09:00+5зсз5895100 1.2 994401
12:00+6зсз71090100 0.3 996856
15:00+6зсз71289100 0.6 998647
18:00+5зюз4992100 0.0 999215
21:00+5зюз5785100 0.0 1000266
9 октября, вс
вс900:00+4ююз489095 0.0 999191
03:00+5ю51092100 0.0 997286
06:00+5ю61198100 1.9 995364
09:00+7ююз71496100 2.8 994588
12:00+8зюз6108788 1.7 994411
15:00+8юз6108778 2.3 994342
18:00+6юз5118772 0.1 994283
21:00+5ююз613905 0.1 994347
10 октября, пн
пн1000:00+4юз91497100 0.2 993877
03:00+6юз101683100 0.2 993905
06:00+6юз111782100 0.1 9921109
09:00+5зюз101590100 0.6 993793
12:00+7зюз91274100 0.3 994975
15:00+7з81376100 0.6 996544
18:00+5зсз81488100 0.9 998926
21:00+5зсз71284100 1.0 1000661